[[{"header":{"parameterUnit":"m.s-1","parameterCategory":1,"la1":30.2991,"la2":30.254,"lo1":-89.0895,"lo2":-89.0444,"dy":0.0017,"dx":0.0017,"nx":28,"ny":28,"refTime":"2025-03-22T21:00:00:Z","depth":0,"parameterNumber":2,"parameterNumberName":"U-component_of_WINDS"},"data":[0,0,0,0,0,0,0,0,0,0,0,0,0,0,0,0,0,0,0,0,0,0,0,0,0,0,0,0,0,0,0,0,0,0,0,0,0,0,0,0,0,0,0,0,0,0,0,0,0,0,0,0,0,0,0,0,0,0,-0.043,-0.0429,0,-0.0327,-0.0326,-0.0325,-0.0271,-0.0271,-0.0271,-0.0271,-0.0166,-0.0163,-0.016,0,0,0,0,0,0,0,0,0,0,0,0,0,-0.0582,-0.0579,-0.043,-0.0429,-0.0427,-0.0327,-0.0326,-0.0324,-0.0271,-0.0271,-0.0271,-0.0271,-0.0166,-0.0163,-0.016,0,0,0,0,0,0,0,0,0,0,0,0,0,-0.0501,-0.0578,-0.043,-0.0389,-0.0384,-0.0327,-0.0326,-0.0324,-0.0271,-0.0271,-0.0271,-0.0271,-0.0168,-0.0164,-0.0159,-0.0136,0,0,-0.0147,-0.0145,0,0,0,0,0,0,0,0,-0.0506,-0.0496,-0.0396,-0.0392,-0.0386,-0.0312,-0.034,-0.0261,-0.0271,-0.0314,-0.0271,-0.0271,-0.0214,-0.0206,-0.0187,-0.0131,-0.0126,-0.0146,-0.0144,-0.0142,-0.0141,0,0,0,0,0,0,0,-0.0511,-0.05,-0.0389,-0.0395,-0.0389,-0.0376,-0.0364,-0.0325,-0.0266,-0.0311,-0.0306,-0.0295,-0.0212,-0.0191,-0.0184,-0.0125,-0.0147,-0.0143,-0.014,-0.0139,-0.0044,-0.0044,0,0,0,0,0,0,-0.0524,-0.0505,-0.0392,-0.0386,-0.0447,-0.0373,-0.036,-0.0336,-0.0266,-0.0256,-0.0295,-0.0293,-0.0198,-0.0189,-0.018,-0.0148,-0.0142,-0.0138,-0.0136,-0.0044,-0.0044,-0.0044,0,0,0,0,0,0,-0.0527,-0.0514,-0.0397,-0.0444,-0.0428,-0.0371,-0.0344,-0.0334,-0.0314,-0.0255,-0.0244,-0.0285,-0.0198,-0.0186,-0.0147,-0.0144,-0.0136,-0.0133,-0.0044,-0.0044,-0.0044,-0.0085,0,0,0,0,0,0,-0.0532,-0.0516,-0.0506,-0.0444,-0.0426,-0.0365,-0.0344,-0.0332,-0.0307,-0.0303,-0.0243,-0.0233,-0.0197,-0.0154,-0.0143,-0.0138,-0.0129,-0.0045,-0.0044,-0.0044,-0.0083,-0.0086,-0.0088,0,0,0,0,0,-0.0537,-0.0521,-0.0506,-0.0492,-0.0413,-0.0365,-0.0355,-0.0314,-0.0307,-0.0296,-0.0259,-0.0234,-0.0146,-0.015,-0.0138,-0.0132,-0.0045,-0.0044,-0.0044,-0.0082,-0.0085,-0.0088,0,0,0,0,0,0,-0.0583,-0.0512,-0.0494,-0.0458,-0.0418,-0.0356,-0.0342,-0.0319,-0.028,-0.0278,-0.023,-0.0217,-0.0182,-0.0153,-0.0159,-0.0105,-0.0093,-0.009,-0.0126,-0.0128,-0.0131,-0.0139,-0.0126,0,0,0,0,0,-0.0589,-0.0557,-0.0496,-0.047,-0.0451,-0.04,-0.0378,-0.0351,-0.0307,-0.029,-0.025,-0.0209,-0.0172,-0.0148,-0.0111,-0.0079,-0.0065,-0.0068,-0.0071,-0.0073,-0.0072,-0.0053,-0.0054,-0.0044,-0.0044,-0.0044,0,0,-0.0601,-0.0558,-0.0541,-0.0478,-0.0444,-0.0412,-0.0386,-0.0353,-0.0329,-0.0285,-0.0246,-0.0215,-0.0166,-0.0131,-0.0113,-0.0105,-0.0071,-0.0073,-0.0075,-0.0072,-0.0053,-0.0054,-0.0055,-0.0044,-0.0044,-0.0044,0,0,-0.0606,-0.0571,-0.0545,-0.0511,-0.046,-0.0427,-0.0421,-0.0363,-0.0341,-0.0301,-0.0268,-0.0238,-0.0175,-0.0142,-0.0117,-0.0111,-0.0087,-0.01,-0.0113,-0.0095,-0.0096,-0.0096,-0.0094,-0.0094,-0.0099,-0.0099,-0.0099,0,-0.0628,-0.0577,-0.0535,-0.0503,-0.0477,-0.0437,-0.0411,-0.038,-0.032,-0.0303,-0.0295,-0.0216,-0.018,-0.0136,-0.0135,-0.0116,-0.0108,-0.0107,-0.0099,-0.0099,-0.0099,-0.0097,-0.0096,-0.0101,-0.01,-0.01,-0.01,0,-0.0606,-0.0572,-0.0558,-0.05,-0.0473,-0.0444,-0.0397,-0.0374,-0.035,-0.0317,-0.0277,-0.0233,-0.0187,-0.0174,-0.0149,-0.0127,-0.0124,-0.0109,-0.0095,-0.0103,-0.01,-0.0098,-0.0103,-0.0103,-0.0102,-0.0102,0,0,-0.0637,-0.0557,-0.0553,-0.0527,-0.0468,-0.044,-0.0411,-0.0365,-0.0347,-0.0306,-0.028,-0.0229,-0.0214,-0.0186,-0.0157,-0.0141,-0.014,-0.0127,-0.0125,-0.0132,-0.0114,-0.0126,-0.0126,-0.0124,-0.0124,-0.0123,-0.0118,0,-0.0634,-0.0578,-0.054,-0.0499,-0.0467,-0.0429,-0.0403,-0.0364,-0.0333,-0.0302,-0.0267,-0.0232,-0.0215,-0.0198,-0.0181,-0.0144,-0.0136,-0.0144,-0.0099,-0.0098,-0.0113,-0.0124,-0.0137,-0.0134,-0.0116,-0.0116,-0.0116,0,-0.0623,-0.0585,-0.0541,-0.0486,-0.0471,-0.0449,-0.0404,-0.0375,-0.033,-0.0309,-0.0278,-0.0249,-0.0216,-0.0205,-0.016,-0.0166,-0.0146,-0.0125,-0.0124,-0.0118,-0.0108,-0.0119,-0.0132,-0.0132,-0.0114,-0.0114,-0.0114,0,-0.0651,-0.0588,-0.0554,-0.0532,-0.0467,-0.0453,-0.0425,-0.038,-0.0356,-0.0317,-0.0301,-0.0259,-0.0236,-0.0204,-0.0165,-0.0161,-0.0123,-0.0109,-0.0105,-0.0106,-0.0099,-0.01,-0.0109,-0.0085,-0.0085,-0.0085,-0.0085,0,-0.0652,-0.0627,-0.0565,-0.0544,-0.0515,-0.0471,-0.0444,-0.0413,-0.0374,-0.0346,-0.0311,-0.0286,-0.0235,-0.0204,-0.0172,-0.014,-0.0129,-0.0111,-0.0103,-0.0115,-0.0117,-0.0101,-0.01,-0.0085,-0.0085,-0.0085,-0.0085,0,-0.0677,-0.0635,-0.0595,-0.0537,-0.0522,-0.0504,-0.0454,-0.0433,-0.04,-0.0366,-0.0356,-0.0305,-0.0266,-0.0224,-0.0171,-0.015,-0.0119,-0.0108,-0.0135,-0.013,-0.0128,-0.0129,-0.0127,-0.0125,-0.0103,-0.0104,-0.0104,0,-0.0681,-0.066,-0.06,-0.058,-0.0553,-0.052,-0.0495,-0.0451,-0.0426,-0.0375,-0.036,-0.0319,-0.0284,-0.0225,-0.0183,-0.0143,-0.013,-0.0132,-0.0124,-0.0136,-0.0131,-0.0132,-0.013,-0.0135,-0.0135,-0.0136,-0.0136,0,-0.0691,-0.0672,-0.0637,-0.0595,-0.0566,-0.0531,-0.0495,-0.048,-0.0429,-0.0403,-0.0364,-0.0337,-0.0284,-0.0244,-0.0199,-0.017,-0.0145,-0.0139,-0.0136,-0.0147,-0.0164,-0.0155,-0.0142,-0.0139,-0.0139,-0.0138,-0.0138,-0.0138,-0.0706,-0.0686,-0.0641,-0.0604,-0.0572,-0.0539,-0.0516,-0.0481,-0.0448,-0.0401,-0.0377,-0.0339,-0.0295,-0.0232,-0.0205,-0.0174,-0.0165,-0.0161,-0.016,-0.0159,-0.0163,-0.0169,-0.0165,-0.0165,-0.0165,-0.0165,-0.0165,0,-0.0715,-0.0684,-0.0651,-0.0601,-0.0572,-0.0551,-0.0509,-0.0487,-0.0453,-0.0415,-0.0381,-0.0337,-0.0298,-0.0254,-0.0212,-0.0196,-0.0184,-0.0187,-0.0188,-0.0182,-0.0172,-0.0179,-0.0198,-0.0198,-0.0198,-0.0198,-0.0198,-0.0198,-0.0716,-0.0683,-0.0658,-0.0608,-0.0578,-0.054,-0.0518,-0.0488,-0.0457,-0.0409,-0.0377,-0.0348,-0.0308,-0.0263,-0.0227,-0.0215,-0.0202,-0.0209,-0.0193,-0.0185,-0.0182,-0.018,-0.0186,-0.0206,-0.0206,-0.0205,-0.0205,-0.0205]},{"header":{"parameterUnit":"m.s-1","parameterCategory":1,"la1":30.2991,"la2":30.254,"lo1":-89.0895,"lo2":-89.0444,"dy":0.0017,"dx":0.0017,"nx":28,"ny":28,"refTime":"2025-03-22T21:00:00:Z","depth":0,"parameterNumber":3,"parameterNumberName":"V-component_of_WINDS"},"data":[0,0,0,0,0,0,0,0,0,0,0,0,0,0,0,0,0,0,0,0,0,0,0,0,0,0,0,0,0,0,0,0,0,0,0,0,0,0,0,0,0,0,0,0,0,0,0,0,0,0,0,0,0,0,0,0,0,0,4.5083,4.5083,0,4.5065,4.5065,4.5065,4.4999,4.4997,4.4996,4.4994,4.4977,4.4978,4.4979,0,0,0,0,0,0,0,0,0,0,0,0,0,4.5062,4.5063,4.5083,4.5083,4.5083,4.5065,4.5065,4.5065,4.4999,4.4997,4.4995,4.4994,4.4977,4.4978,4.4979,0,0,0,0,0,0,0,0,0,0,0,0,0,4.506,4.5063,4.5083,4.5048,4.5044,4.5065,4.5065,4.5064,4.4999,4.4997,4.4995,4.4993,4.4976,4.4978,4.4979,4.5033,0,0,4.4983,4.4984,0,0,0,0,0,0,0,0,4.5061,4.5061,4.5053,4.505,4.5046,4.5032,4.5051,4.5054,4.5,4.5017,4.4994,4.4992,4.4997,4.4997,4.4998,4.5032,4.5031,4.4984,4.4984,4.4985,4.4985,0,0,0,0,0,0,0,4.5061,4.5062,4.5076,4.5053,4.5049,4.5033,4.503,4.5051,4.502,4.5015,4.501,4.5009,4.4995,4.4997,4.4997,4.5031,4.4984,4.4985,4.4986,4.4986,4.5108,4.511,0,0,0,0,0,0,4.5066,4.5062,4.5076,4.5075,4.5048,4.5035,4.5032,4.5039,4.5019,4.5014,4.5011,4.5006,4.4996,4.4996,4.4997,4.5058,4.4985,4.4986,4.4987,4.5106,4.5109,4.5111,0,0,0,0,0,0,4.5065,4.5068,4.5077,4.5067,4.5067,4.5038,4.5046,4.504,4.5042,4.5016,4.501,4.5019,4.4994,4.4995,4.5024,4.5056,4.4987,4.4988,4.5103,4.5107,4.511,4.5181,0,0,0,0,0,0,4.5065,4.5068,4.5088,4.5068,4.5068,4.5105,4.5048,4.5041,4.5044,4.5038,4.5022,4.5017,4.4992,4.5023,4.5026,4.5057,4.4989,4.51,4.5105,4.5109,4.5176,4.5186,4.5196,0,0,0,0,0,4.5065,4.5109,4.5089,4.5091,4.5092,4.5107,4.5107,4.5077,4.5047,4.5067,4.505,4.5018,4.5053,4.5026,4.5029,4.5061,4.5098,4.5103,4.5108,4.5171,4.5184,4.5196,0,0,0,0,0,0,4.5132,4.5105,4.5083,4.5122,4.5117,4.5096,4.5119,4.5092,4.5096,4.5089,4.5052,4.505,4.5084,4.5076,4.5047,4.5112,4.507,4.5076,4.5116,4.5129,4.5139,4.5139,4.4991,0,0,0,0,0,4.5152,4.5166,4.5141,4.5178,4.5177,4.5149,4.5154,4.5132,4.5125,4.5123,4.5109,4.5104,4.5114,4.5121,4.5129,4.5175,4.517,4.5198,4.5208,4.5217,4.5222,4.5246,4.5258,4.5129,4.5129,4.5129,0,0,4.5192,4.5179,4.519,4.5192,4.5185,4.52,4.5148,4.5166,4.5177,4.5126,4.5152,4.5142,4.5135,4.5173,4.5189,4.5167,4.5257,4.5224,4.5231,4.5231,4.5253,4.5265,4.5276,4.5133,4.5132,4.5131,0,0,4.5273,4.5265,4.5294,4.5289,4.528,4.5261,4.5269,4.5251,4.5242,4.5269,4.5231,4.5244,4.5262,4.5257,4.5258,4.5339,4.5309,4.5343,4.5395,4.5418,4.5428,4.5437,4.5465,4.5476,4.5348,4.5349,4.5349,0,4.5324,4.5345,4.5313,4.5334,4.5336,4.529,4.532,4.5317,4.5311,4.5313,4.5289,4.531,4.5302,4.5338,4.5358,4.536,4.5367,4.5343,4.543,4.5438,4.5446,4.5472,4.5483,4.5353,4.5352,4.5352,4.5351,0,4.5409,4.5424,4.5449,4.5444,4.5449,4.5475,4.5446,4.5455,4.5433,4.5417,4.5445,4.5433,4.5438,4.5445,4.5424,4.5479,4.5465,4.5436,4.5392,4.5463,4.5487,4.5497,4.5358,4.5357,4.5356,4.5355,0,0,4.553,4.5508,4.5517,4.5515,4.5502,4.5513,4.5537,4.5541,4.5549,4.5548,4.5566,4.5583,4.5556,4.5556,4.5534,4.5555,4.5619,4.5523,4.5522,4.554,4.5679,4.57,4.5712,4.56,4.5602,4.5603,4.5679,0,4.5607,4.5645,4.5617,4.566,4.5674,4.5632,4.5652,4.5647,4.5633,4.5643,4.5628,4.564,4.5604,4.5604,4.5623,4.5607,4.5646,4.5602,4.5617,4.5617,4.5618,4.5725,4.5747,4.5819,4.5688,4.569,4.5691,0,4.57,4.5702,4.5747,4.5731,4.5736,4.5755,4.5756,4.5767,4.576,4.5749,4.575,4.5723,4.5745,4.5703,4.5734,4.5704,4.5709,4.5703,4.5705,4.5704,4.5657,4.5726,4.5841,4.5852,4.5706,4.5704,4.5703,0,4.5783,4.5797,4.5825,4.5825,4.5807,4.5822,4.5815,4.5806,4.5811,4.5813,4.5815,4.582,4.5823,4.5828,4.5802,4.5774,4.5836,4.5792,4.5827,4.5828,4.5841,4.584,4.5958,4.5846,4.5846,4.5846,4.5846,0,4.587,4.5899,4.5862,4.588,4.5911,4.5879,4.5911,4.59,4.5893,4.5908,4.5872,4.5887,4.5854,4.5865,4.5846,4.5874,4.5876,4.5867,4.5861,4.587,4.5871,4.5871,4.5865,4.5849,4.5848,4.5848,4.5847,0,4.5968,4.5944,4.5972,4.5954,4.595,4.5974,4.5958,4.5974,4.5958,4.5978,4.598,4.5956,4.5968,4.5943,4.5952,4.5939,4.5979,4.5966,4.5981,4.5976,4.6012,4.6009,4.6133,4.6148,4.6028,4.6029,4.603,0,4.6024,4.6045,4.6029,4.6036,4.6032,4.6044,4.6048,4.6019,4.6025,4.6019,4.6036,4.6045,4.605,4.6071,4.6054,4.6061,4.6047,4.609,4.6048,4.6055,4.6046,4.6045,4.6047,4.6099,4.61,4.6101,4.6102,0,4.6127,4.6114,4.6121,4.6125,4.6131,4.6133,4.6132,4.614,4.6108,4.6117,4.6129,4.6133,4.6142,4.6151,4.6154,4.6148,4.612,4.6116,4.6124,4.6132,4.6139,4.6135,4.6003,4.6113,4.6112,4.6111,4.611,4.611,4.6204,4.6221,4.6212,4.6222,4.6218,4.6218,4.6232,4.6218,4.6227,4.6231,4.6214,4.6229,4.6223,4.6224,4.6221,4.6233,4.6213,4.6226,4.6228,4.6231,4.6237,4.6139,4.6233,4.6233,4.6233,4.6233,4.6232,0,4.6304,4.6296,4.6306,4.6305,4.6313,4.6287,4.6284,4.6293,4.6307,4.6303,4.6309,4.6322,4.6331,4.6316,4.6322,4.6335,4.6323,4.6338,4.6336,4.6335,4.6254,4.6246,4.6348,4.6348,4.6348,4.6348,4.6348,4.6348,4.6356,4.6383,4.637,4.6395,4.6387,4.6402,4.6403,4.6403,4.64,4.6416,4.6423,4.6413,4.6405,4.6411,4.6418,4.6413,4.6417,4.6436,4.6427,4.6352,4.634,4.633,4.6322,4.6438,4.6438,4.6506,4.6507,4.6507]}]]